QPF
0.00 0.00 0.00 0.00 0.00 0.01 0.01 0.01 0.01 0.02 0.01 0.01 0.01 0.00 0.00 0.00 0.01 0.01 0.01 0.01 0.02 0.02 0.02 0.03 0.02 0.03 0.03 0.03 0.04 0.03 0.03 0.03 0.02 0.03 0.03 0.04 0.03 0.04 0.08 0.11 0.12 0.02 0.02
0.00 0.00 0.00 0.00 0.00 0.01 0.01 0.01 0.01 0.02 0.02 0.01 0.01 0.00 0.00 0.00 0.01 0.01 0.01 0.01 0.02 0.02 0.03 0.03 0.04 0.04 0.04 0.04 0.04 0.03 0.04 0.03 0.03 0.04 0.05 0.03 0.03 0.05 0.09 0.11 0.11 0.03 0.03
0.00 0.00 0.00 0.00 0.01 0.01 0.01 0.01 0.02 0.02 0.01 0.01 0.01 0.01 0.01 0.01 0.01 0.02 0.02 0.02 0.02 0.03 0.03 0.04 0.04 0.04 0.04 0.02 0.03 0.04 0.05 0.04 0.07 0.09 0.13 0.05 0.01 0.05 0.08 0.07 0.04 0.03 0.05
0.00 0.00 0.00 0.00 0.01 0.01 0.01 0.01 0.02 0.02 0.01 0.01 0.01 0.01 0.01 0.01 0.01 0.02 0.03 0.03 0.02 0.02 0.03 0.03 0.03 0.03 0.03 0.03 0.02 0.04 0.05 0.05 0.09 0.18 0.13 0.02 0.01 0.02 0.04 0.04 0.04 0.04 0.05
0.00 0.00 0.00 0.00 0.00 0.01 0.01 0.01 0.01 0.02 0.01 0.01 0.01 0.01 0.02 0.01 0.01 0.02 0.02 0.02 0.02 0.03 0.03 0.03 0.03 0.03 0.03 0.03 0.03 0.03 0.03 0.04 0.09 0.15 0.06 0.04 0.02 0.01 0.02 0.03 0.03 0.03 0.04
0.00 0.00 0.00 0.00 0.00 0.01 0.01 0.01 0.01 0.02 0.01 0.01 0.01 0.02 0.02 0.02 0.01 0.01 0.01 0.02 0.02 0.03 0.02 0.03 0.03 0.03 0.02 0.03 0.03 0.03 0.03 0.05 0.10 0.05 0.04 0.05 0.01 0.01 0.03 0.03 0.02 0.03 0.05
0.00 0.00 0.00 0.00 0.00 0.01 0.01 0.01 0.02 0.02 0.01 0.01 0.01 0.01 0.02 0.01 0.01 0.01 0.01 0.01 0.02 0.02 0.02 0.02 0.02 0.03 0.02 0.02 0.02 0.02 0.03 0.04 0.08 0.02 0.06 0.05 0.01 0.01 0.02 0.03 0.03 0.03 0.03
0.01 0.01 0.00 0.01 0.00 0.01 0.01 0.01 0.02 0.02 0.02 0.01 0.01 0.01 0.01 0.01 0.01 0.02 0.02 0.02 0.01 0.01 0.01 0.01 0.01 0.02 0.02 0.02 0.02 0.02 0.02 0.04 0.03 0.01 0.02 0.01 0.00 0.00 0.01 0.01 0.02 0.03 0.02
0.02 0.01 0.01 0.01 0.01 0.01 0.02 0.02 0.02 0.02 0.01 0.01 0.01 0.01 0.01 0.01 0.01 0.01 0.01 0.02 0.01 0.01 0.01 0.01 0.01 0.01 0.01 0.01 0.02 0.02 0.02 0.04 0.02 0.02 0.03 0.01 0.00 0.01 0.01 0.01 0.02 0.02 0.01
0.02 0.02 0.04 0.03 0.04 0.03 0.02 0.02 0.02 0.02 0.01 0.01 0.01 0.01 0.01 0.01 0.01 0.01 0.01 0.01 0.02 0.01 0.01 0.01 0.01 0.01 0.01 0.01 0.01 0.01 0.01 0.03 0.04 0.07 0.04 0.01 0.00 0.01 0.01 0.01 0.01 0.01 0.01
0.03 0.05 0.05 0.06 0.05 0.04 0.03 0.03 0.03 0.02 0.02 0.02 0.02 0.01 0.03 0.05 0.03 0.03 0.02 0.01 0.01 0.01 0.01 0.01 0.01 0.01 0.00 0.01 0.01 0.01 0.03 0.03 0.05 0.08 0.03 0.01 0.00 0.00 0.01 0.01 0.01 0.01 0.01
0.04 0.05 0.09 0.06 0.04 0.04 0.06 0.06 0.08 0.07 0.04 0.05 0.04 0.03 0.07 0.10 0.10 0.05 0.03 0.02 0.01 0.01 0.01 0.01 0.01 0.01 0.01 0.02 0.01 0.02 0.06 0.07 0.03 0.02 0.01 0.00 0.00 0.01 0.01 0.01 0.01 0.02 0.02
0.05 0.06 0.09 0.08 0.04 0.04 0.08 0.08 0.08 0.09 0.08 0.09 0.07 0.06 0.09 0.07 0.05 0.04 0.03 0.03 0.03 0.02 0.03 0.01 0.01 0.03 0.04 0.06 0.07 0.03 0.04 0.05 0.03 0.03 0.02 0.01 0.00 0.00 0.01 0.01 0.01 0.01 0.01
0.07 0.07 0.07 0.09 0.07 0.06 0.05 0.07 0.05 0.05 0.07 0.09 0.10 0.07 0.07 0.08 0.07 0.07 0.06 0.05 0.04 0.04 0.05 0.03 0.04 0.05 0.03 0.02 0.03 0.05 0.03 0.03 0.05 0.03 0.01 0.01 0.01 0.01 0.01 0.01 0.01 0.01 0.01
0.05 0.09 0.09 0.09 0.10 0.10 0.10 0.08 0.06 0.07 0.06 0.08 0.10 0.09 0.07 0.06 0.06 0.06 0.06 0.06 0.04 0.02 0.03 0.05 0.05 0.03 0.03 0.02 0.01 0.02 0.02 0.02 0.08 0.04 0.02 0.01 0.01 0.01 0.01 0.01 0.01 0.01 0.02
0.06 0.12 0.13 0.11 0.13 0.11 0.10 0.10 0.09 0.07 0.08 0.08 0.08 0.07 0.05 0.06 0.07 0.06 0.05 0.04 0.03 0.02 0.02 0.03 0.02 0.03 0.03 0.01 0.02 0.02 0.03 0.03 0.03 0.04 0.04 0.03 0.01 0.01 0.02 0.02 0.01 0.02 0.02
0.05 0.10 0.13 0.13 0.17 0.15 0.12 0.09 0.07 0.06 0.06 0.07 0.09 0.08 0.05 0.06 0.07 0.06 0.05 0.03 0.03 0.02 0.03 0.02 0.02 0.02 0.01 0.01 0.01 0.02 0.02 0.03 0.02 0.02 0.03 0.04 0.02 0.01 0.01 0.02 0.02 0.02 0.02
0.07 0.10 0.13 0.14 0.17 0.18 0.15 0.11 0.07 0.06 0.06 0.07 0.08 0.08 0.06 0.05 0.05 0.06 0.06 0.04 0.03 0.02 0.02 0.02 0.02 0.02 0.02 0.02 0.02 0.01 0.01 0.01 0.01 0.01 0.02 0.02 0.04 0.03 0.02 0.02 0.02 0.01 0.02
0.08 0.12 0.14 0.18 0.18 0.16 0.14 0.12 0.10 0.08 0.09 0.07 0.07 0.07 0.05 0.03 0.03 0.05 0.07 0.07 0.03 0.03 0.03 0.02 0.03 0.02 0.04 0.03 0.01 0.01 0.01 0.01 0.00 0.01 0.01 0.01 0.03 0.04 0.03 0.02 0.01 0.01 0.01
0.08 0.14 0.14 0.19 0.20 0.17 0.16 0.16 0.15 0.11 0.09 0.08 0.08 0.08 0.06 0.04 0.03 0.05 0.05 0.04 0.04 0.04 0.04 0.05 0.06 0.04 0.04 0.03 0.02 0.02 0.01 0.01 0.01 0.00 0.01 0.01 0.02 0.01 0.02 0.01 0.01 0.01 0.01
0.08 0.14 0.14 0.16 0.19 0.17 0.13 0.12 0.11 0.11 0.10 0.09 0.08 0.07 0.06 0.05 0.05 0.06 0.07 0.07 0.05 0.05 0.05 0.06 0.07 0.05 0.04 0.03 0.03 0.03 0.02 0.01 0.01 0.01 0.00 0.00 0.00 0.00 0.01 0.01 0.02 0.02 0.02
0.08 0.14 0.15 0.13 0.14 0.15 0.12 0.11 0.11 0.11 0.10 0.09 0.09 0.11 0.07 0.06 0.06 0.04 0.07 0.06 0.05 0.07 0.08 0.07 0.07 0.06 0.04 0.02 0.03 0.04 0.04 0.03 0.02 0.01 0.01 0.00 0.00 0.00 0.00 0.00 0.01 0.01 0.01
0.08 0.11 0.14 0.13 0.12 0.14 0.13 0.14 0.15 0.15 0.12 0.12 0.13 0.11 0.08 0.06 0.05 0.06 0.06 0.05 0.04 0.04 0.05 0.06 0.05 0.05 0.05 0.04 0.03 0.04 0.05 0.05 0.03 0.02 0.01 0.01 0.00 0.00 0.00 0.00 0.01 0.01 0.01
0.07 0.10 0.15 0.16 0.14 0.15 0.15 0.14 0.12 0.09 0.08 0.08 0.08 0.09 0.08 0.07 0.05 0.05 0.04 0.04 0.04 0.05 0.06 0.05 0.04 0.03 0.04 0.04 0.03 0.02 0.03 0.04 0.05 0.04 0.02 0.01 0.01 0.00 0.00 0.00 0.01 0.00 0.00
0.07 0.09 0.12 0.16 0.16 0.16 0.17 0.16 0.15 0.12 0.12 0.12 0.11 0.11 0.09 0.08 0.07 0.04 0.03 0.04 0.04 0.05 0.06 0.06 0.05 0.03 0.03 0.03 0.02 0.02 0.02 0.02 0.03 0.03 0.03 0.02 0.01 0.00 0.00 0.00 0.00 0.00 0.01
0.07 0.09 0.11 0.14 0.15 0.16 0.16 0.17 0.17 0.15 0.15 0.14 0.12 0.10 0.08 0.08 0.07 0.05 0.02 0.03 0.04 0.05 0.05 0.04 0.04 0.03 0.03 0.03 0.02 0.01 0.02 0.02 0.01 0.02 0.02 0.02 0.02 0.01 0.00 0.00 0.00 0.00 0.01
MSLP
1007.72 1007.88 1008.21 1008.71 1009.30 1009.92 1010.47 1010.91 1011.22 1011.43 1011.59 1011.74 1011.94 1012.18 1012.47 1012.79 1013.08 1013.32 1013.50 1013.61 1013.68 1013.74 1013.82 1013.94 1014.09 1014.27 1014.46 1014.65 1014.81 1014.96 1015.09 1015.23 1015.37 1015.55 1015.74 1015.95 1016.15 1016.34 1016.51 1016.65 1016.76 1016.87 1016.98
1007.46 1007.80 1008.31 1008.95 1009.65 1010.30 1010.84 1011.23 1011.47 1011.61 1011.71 1011.83 1012.03 1012.32 1012.66 1013.03 1013.37 1013.64 1013.82 1013.92 1013.97 1014.01 1014.07 1014.18 1014.34 1014.53 1014.74 1014.93 1015.11 1015.25 1015.37 1015.50 1015.64 1015.81 1016.01 1016.23 1016.45 1016.65 1016.83 1016.98 1017.10 1017.22 1017.34
1007.14 1007.65 1008.34 1009.14 1009.95 1010.67 1011.22 1011.58 1011.78 1011.87 1011.92 1012.03 1012.22 1012.52 1012.89 1013.28 1013.63 1013.90 1014.08 1014.17 1014.21 1014.24 1014.31 1014.43 1014.60 1014.81 1015.02 1015.21 1015.37 1015.49 1015.60 1015.71 1015.85 1016.03 1016.25 1016.49 1016.73 1016.96 1017.15 1017.31 1017.45 1017.58 1017.71
1006.79 1007.47 1008.32 1009.26 1010.18 1010.97 1011.56 1011.93 1012.11 1012.17 1012.21 1012.30 1012.49 1012.79 1013.16 1013.54 1013.89 1014.15 1014.31 1014.39 1014.43 1014.48 1014.56 1014.70 1014.89 1015.11 1015.31 1015.49 1015.61 1015.70 1015.78 1015.88 1016.01 1016.21 1016.46 1016.73 1017.01 1017.27 1017.49 1017.67 1017.81 1017.94 1018.08
1006.48 1007.29 1008.27 1009.33 1010.34 1011.20 1011.83 1012.22 1012.40 1012.47 1012.51 1012.61 1012.80 1013.10 1013.45 1013.82 1014.14 1014.38 1014.53 1014.61 1014.66 1014.73 1014.85 1015.02 1015.23 1015.44 1015.63 1015.77 1015.85 1015.90 1015.94 1016.02 1016.16 1016.38 1016.67 1016.99 1017.32 1017.61 1017.85 1018.04 1018.18 1018.30 1018.44
1006.29 1007.18 1008.24 1009.38 1010.45 1011.34 1012.00 1012.41 1012.63 1012.72 1012.78 1012.90 1013.11 1013.41 1013.76 1014.10 1014.40 1014.62 1014.75 1014.84 1014.91 1015.01 1015.16 1015.36 1015.58 1015.79 1015.95 1016.05 1016.08 1016.07 1016.08 1016.14 1016.30 1016.55 1016.89 1017.27 1017.64 1017.97 1018.23 1018.41 1018.54 1018.65 1018.77
1006.27 1007.19 1008.29 1009.44 1010.52 1011.42 1012.09 1012.51 1012.75 1012.87 1012.98 1013.13 1013.37 1013.68 1014.04 1014.37 1014.65 1014.85 1014.98 1015.07 1015.16 1015.29 1015.47 1015.70 1015.93 1016.12 1016.25 1016.30 1016.28 1016.23 1016.21 1016.26 1016.44 1016.73 1017.12 1017.55 1017.98 1018.34 1018.61 1018.78 1018.89 1018.96 1019.05
1006.41 1007.34 1008.42 1009.55 1010.59 1011.45 1012.09 1012.51 1012.76 1012.92 1013.08 1013.28 1013.57 1013.91 1014.28 1014.61 1014.88 1015.07 1015.20 1015.29 1015.40 1015.55 1015.75 1015.98 1016.21 1016.39 1016.48 1016.49 1016.43 1016.34 1016.31 1016.37 1016.57 1016.91 1017.35 1017.83 1018.30 1018.68 1018.96 1019.12 1019.19 1019.23 1019.27
1006.68 1007.58 1008.61 1009.67 1010.64 1011.44 1012.03 1012.43 1012.68 1012.88 1013.08 1013.35 1013.69 1014.08 1014.47 1014.82 1015.09 1015.28 1015.40 1015.49 1015.60 1015.75 1015.95 1016.18 1016.40 1016.55 1016.62 1016.59 1016.51 1016.42 1016.38 1016.46 1016.70 1017.08 1017.56 1018.09 1018.58 1018.99 1019.26 1019.41 1019.45 1019.44 1019.45
1006.95 1007.82 1008.81 1009.79 1010.67 1011.39 1011.91 1012.28 1012.53 1012.76 1013.02 1013.35 1013.75 1014.19 1014.62 1014.99 1015.27 1015.46 1015.57 1015.65 1015.75 1015.89 1016.07 1016.28 1016.47 1016.60 1016.65 1016.62 1016.53 1016.45 1016.43 1016.54 1016.81 1017.23 1017.75 1018.30 1018.82 1019.23 1019.51 1019.64 1019.66 1019.63 1019.60
1007.13 1007.99 1008.92 1009.83 1010.63 1011.27 1011.74 1012.07 1012.33 1012.59 1012.90 1013.29 1013.75 1014.24 1014.72 1015.12 1015.41 1015.60 1015.71 1015.77 1015.85 1015.96 1016.11 1016.28 1016.45 1016.56 1016.60 1016.57 1016.50 1016.45 1016.47 1016.62 1016.91 1017.36 1017.90 1018.47 1018.99 1019.41 1019.69 1019.83 1019.85 1019.81 1019.77
1007.14 1007.99 1008.90 1009.75 1010.49 1011.08 1011.51 1011.82 1012.09 1012.38 1012.74 1013.19 1013.70 1014.25 1014.76 1015.19 1015.50 1015.70 1015.80 1015.85 1015.90 1015.98 1016.09 1016.23 1016.36 1016.46 1016.50 1016.49 1016.46 1016.45 1016.51 1016.69 1017.02 1017.47 1018.02 1018.58 1019.10 1019.52 1019.81 1019.96 1020.00 1019.98 1019.96
1006.93 1007.81 1008.70 1009.53 1010.24 1010.80 1011.22 1011.54 1011.83 1012.16 1012.56 1013.05 1013.61 1014.19 1014.73 1015.19 1015.52 1015.73 1015.84 1015.89 1015.92 1015.97 1016.05 1016.15 1016.26 1016.35 1016.40 1016.42 1016.43 1016.47 1016.58 1016.79 1017.13 1017.58 1018.10 1018.64 1019.14 1019.55 1019.85 1020.03 1020.12 1020.15 1020.16
1006.57 1007.46 1008.36 1009.19 1009.90 1010.46 1010.89 1011.24 1011.56 1011.92 1012.35 1012.87 1013.45 1014.04 1014.61 1015.08 1015.45 1015.69 1015.82 1015.88 1015.92 1015.96 1016.02 1016.10 1016.19 1016.28 1016.35 1016.40 1016.46 1016.54 1016.69 1016.92 1017.26 1017.68 1018.16 1018.65 1019.12 1019.52 1019.83 1020.05 1020.19 1020.28 1020.35
1006.14 1007.05 1007.95 1008.79 1009.51 1010.10 1010.57 1010.95 1011.32 1011.70 1012.15 1012.66 1013.23 1013.82 1014.37 1014.86 1015.25 1015.53 1015.71 1015.82 1015.89 1015.95 1016.02 1016.10 1016.19 1016.28 1016.37 1016.45 1016.55 1016.68 1016.85 1017.09 1017.40 1017.78 1018.20 1018.63 1019.05 1019.42 1019.73 1019.99 1020.19 1020.35 1020.49
1005.77 1006.67 1007.57 1008.42 1009.16 1009.78 1010.29 1010.73 1011.12 1011.52 1011.95 1012.44 1012.96 1013.51 1014.04 1014.52 1014.94 1015.27 1015.52 1015.70 1015.84 1015.95 1016.06 1016.16 1016.26 1016.37 1016.47 1016.59 1016.71 1016.87 1017.05 1017.28 1017.56 1017.88 1018.22 1018.58 1018.93 1019.26 1019.57 1019.85 1020.10 1020.32 1020.53
1005.56 1006.43 1007.31 1008.14 1008.90 1009.56 1010.11 1010.59 1011.01 1011.41 1011.81 1012.24 1012.69 1013.16 1013.64 1014.10 1014.53 1014.92 1015.25 1015.53 1015.76 1015.96 1016.12 1016.27 1016.40 1016.53 1016.65 1016.79 1016.93 1017.10 1017.29 1017.50 1017.73 1017.98 1018.24 1018.51 1018.78 1019.06 1019.34 1019.63 1019.91 1020.19 1020.44
1005.56 1006.37 1007.20 1008.00 1008.76 1009.45 1010.05 1010.57 1011.01 1011.40 1011.75 1012.10 1012.45 1012.83 1013.23 1013.65 1014.09 1014.52 1014.94 1015.32 1015.67 1015.96 1016.21 1016.41 1016.58 1016.73 1016.88 1017.02 1017.18 1017.35 1017.53 1017.72 1017.90 1018.08 1018.26 1018.44 1018.63 1018.84 1019.08 1019.35 1019.65 1019.95 1020.24
1005.73 1006.46 1007.21 1007.97 1008.72 1009.43 1010.07 1010.63 1011.10 1011.48 1011.79 1012.05 1012.30 1012.57 1012.88 1013.24 1013.67 1014.14 1014.63 1015.11 1015.57 1015.97 1016.30 1016.57 1016.78 1016.96 1017.11 1017.27 1017.43 1017.60 1017.77 1017.93 1018.08 1018.20 1018.30 1018.40 1018.50 1018.64 1018.82 1019.05 1019.34 1019.65 1019.96
1005.97 1006.60 1007.27 1007.97 1008.70 1009.43 1010.11 1010.72 1011.23 1011.62 1011.91 1012.10 1012.26 1012.42 1012.64 1012.94 1013.33 1013.82 1014.36 1014.93 1015.48 1015.97 1016.39 1016.72 1016.97 1017.17 1017.34 1017.50 1017.66 1017.83 1018.00 1018.14 1018.26 1018.33 1018.36 1018.38 1018.40 1018.46 1018.58 1018.76 1019.01 1019.32 1019.63
1006.15 1006.68 1007.26 1007.90 1008.61 1009.35 1010.09 1010.77 1011.34 1011.77 1012.06 1012.23 1012.32 1012.40 1012.54 1012.77 1013.12 1013.60 1014.18 1014.80 1015.41 1015.98 1016.45 1016.83 1017.12 1017.34 1017.52 1017.69 1017.86 1018.03 1018.20 1018.33 1018.43 1018.47 1018.45 1018.41 1018.36 1018.34 1018.38 1018.51 1018.72 1018.99 1019.31
1006.16 1006.59 1007.07 1007.66 1008.35 1009.12 1009.92 1010.68 1011.34 1011.85 1012.18 1012.36 1012.44 1012.48 1012.55 1012.73 1013.04 1013.50 1014.07 1014.72 1015.37 1015.97 1016.49 1016.91 1017.22 1017.46 1017.65 1017.83 1018.00 1018.19 1018.36 1018.50 1018.59 1018.61 1018.56 1018.47 1018.36 1018.27 1018.24 1018.30 1018.46 1018.71 1019.02
1005.94 1006.28 1006.68 1007.21 1007.88 1008.67 1009.53 1010.39 1011.15 1011.77 1012.19 1012.44 1012.54 1012.59 1012.64 1012.78 1013.06 1013.48 1014.04 1014.67 1015.33 1015.94 1016.48 1016.91 1017.24 1017.49 1017.70 1017.89 1018.08 1018.28 1018.47 1018.63 1018.72 1018.74 1018.67 1018.54 1018.38 1018.23 1018.14 1018.14 1018.25 1018.46 1018.75
1005.52 1005.78 1006.11 1006.59 1007.23 1008.04 1008.95 1009.89 1010.76 1011.50 1012.04 1012.38 1012.56 1012.64 1012.71 1012.85 1013.10 1013.49 1014.01 1014.62 1015.25 1015.86 1016.39 1016.83 1017.17 1017.44 1017.66 1017.87 1018.09 1018.31 1018.52 1018.69 1018.80 1018.82 1018.75 1018.60 1018.41 1018.22 1018.07 1018.01 1018.07 1018.24 1018.51
1005.04 1005.24 1005.51 1005.93 1006.53 1007.33 1008.26 1009.25 1010.21 1011.05 1011.70 1012.15 1012.42 1012.58 1012.70 1012.85 1013.10 1013.46 1013.95 1014.52 1015.12 1015.70 1016.22 1016.66 1017.00 1017.28 1017.53 1017.76 1018.00 1018.25 1018.48 1018.68 1018.81 1018.85 1018.78 1018.63 1018.42 1018.19 1018.01 1017.90 1017.90 1018.03 1018.27
1004.65 1004.81 1005.03 1005.39 1005.94 1006.69 1007.60 1008.60 1009.59 1010.49 1011.23 1011.77 1012.14 1012.38 1012.56 1012.75 1013.01 1013.36 1013.82 1014.35 1014.92 1015.47 1015.97 1016.40 1016.75 1017.04 1017.31 1017.56 1017.83 1018.10 1018.36 1018.58 1018.73 1018.79 1018.74 1018.59 1018.38 1018.14 1017.93 1017.78 1017.74 1017.83 1018.03
Thickness
5812 5806 5799 5796 5793 5790 5787 5785 5783 5780 5778 5777 5775 5773 5772 5771 5769 5768 5767 5766 5765 5764 5763 5762 5761 5760 5759 5757 5756 5755 5754 5752 5751 5750 5749 5747 5745 5744 5744 5743 5743 5740 5738
5816 5806 5799 5795 5792 5789 5786 5784 5781 5779 5777 5775 5773 5772 5770 5769 5768 5766 5765 5764 5763 5762 5761 5760 5759 5758 5757 5756 5754 5753 5752 5751 5749 5749 5747 5745 5744 5743 5743 5742 5741 5738 5737
5815 5805 5798 5794 5790 5787 5785 5782 5779 5778 5776 5774 5772 5770 5769 5767 5766 5765 5764 5762 5761 5760 5759 5758 5757 5756 5755 5754 5753 5752 5751 5750 5748 5748 5747 5745 5742 5741 5741 5740 5738 5737 5735
5814 5805 5799 5793 5789 5786 5783 5780 5778 5776 5774 5772 5770 5769 5767 5766 5764 5763 5762 5761 5760 5758 5757 5756 5755 5754 5753 5753 5752 5751 5750 5749 5748 5748 5747 5745 5742 5739 5739 5738 5736 5735 5734
5813 5805 5797 5792 5788 5784 5781 5779 5777 5774 5772 5770 5769 5767 5766 5764 5763 5762 5761 5759 5758 5757 5756 5755 5754 5753 5752 5751 5751 5750 5749 5749 5748 5748 5746 5743 5740 5738 5737 5736 5735 5734 5732
5812 5804 5794 5790 5786 5782 5779 5777 5775 5773 5770 5769 5767 5766 5764 5763 5762 5760 5759 5758 5756 5755 5754 5753 5752 5751 5750 5750 5750 5749 5749 5749 5748 5748 5745 5741 5738 5736 5735 5734 5733 5732 5731
5811 5802 5792 5787 5784 5780 5777 5775 5773 5771 5769 5767 5765 5764 5763 5761 5760 5759 5757 5756 5755 5754 5752 5751 5750 5749 5749 5749 5748 5748 5748 5748 5749 5747 5743 5739 5736 5735 5734 5733 5732 5731 5730
5810 5800 5789 5785 5781 5778 5775 5773 5771 5769 5767 5765 5764 5762 5761 5759 5758 5757 5755 5754 5753 5752 5750 5749 5749 5748 5747 5747 5747 5747 5748 5748 5749 5746 5742 5738 5735 5733 5732 5731 5730 5730 5728
5809 5798 5788 5783 5779 5776 5773 5771 5769 5767 5765 5764 5762 5761 5759 5758 5756 5755 5753 5752 5751 5750 5749 5748 5747 5746 5746 5746 5746 5747 5747 5748 5748 5745 5740 5736 5734 5732 5731 5730 5729 5729 5727
5805 5796 5789 5783 5778 5774 5771 5768 5766 5765 5763 5762 5760 5759 5757 5756 5755 5753 5752 5750 5749 5748 5747 5746 5745 5745 5745 5745 5745 5746 5746 5747 5747 5744 5739 5735 5733 5732 5730 5729 5728 5727 5726
5800 5794 5790 5783 5778 5774 5771 5767 5764 5763 5761 5760 5758 5757 5756 5755 5754 5752 5750 5748 5747 5746 5746 5745 5744 5744 5744 5744 5745 5745 5746 5746 5745 5743 5739 5735 5733 5731 5729 5728 5727 5726 5725
5795 5792 5789 5783 5778 5775 5772 5766 5764 5762 5759 5759 5758 5756 5756 5756 5754 5752 5749 5747 5746 5745 5745 5744 5743 5743 5744 5745 5745 5745 5746 5747 5745 5741 5737 5735 5732 5730 5729 5727 5726 5725 5724
5795 5792 5789 5783 5779 5776 5772 5766 5765 5763 5759 5758 5757 5756 5756 5755 5753 5751 5748 5746 5745 5745 5745 5744 5743 5744 5745 5746 5746 5747 5747 5747 5744 5740 5735 5734 5732 5730 5728 5727 5725 5724 5723
5794 5790 5787 5783 5779 5776 5772 5768 5766 5763 5759 5759 5757 5757 5756 5754 5754 5751 5749 5748 5746 5746 5745 5745 5746 5746 5746 5746 5747 5747 5747 5747 5743 5738 5734 5733 5732 5730 5728 5726 5724 5723 5722
5792 5789 5785 5781 5776 5774 5770 5767 5766 5764 5761 5759 5757 5756 5755 5754 5753 5751 5750 5749 5748 5747 5746 5745 5746 5746 5745 5746 5746 5746 5746 5745 5743 5739 5734 5732 5731 5730 5728 5726 5724 5723 5721
5791 5787 5783 5778 5774 5770 5767 5765 5766 5764 5761 5759 5757 5755 5754 5754 5752 5750 5749 5748 5748 5747 5746 5745 5745 5744 5744 5745 5746 5745 5744 5743 5742 5739 5735 5732 5731 5729 5728 5726 5724 5722 5721
5792 5787 5781 5776 5771 5767 5764 5763 5763 5762 5760 5758 5756 5754 5753 5752 5751 5750 5749 5748 5747 5746 5745 5744 5744 5744 5744 5744 5744 5744 5743 5742 5742 5740 5736 5734 5731 5729 5728 5726 5724 5723 5721
5791 5785 5780 5776 5769 5765 5762 5760 5761 5761 5759 5758 5755 5753 5751 5751 5750 5748 5747 5747 5746 5745 5744 5743 5743 5742 5742 5742 5741 5742 5742 5742 5741 5740 5738 5736 5733 5731 5728 5727 5725 5724 5722
5790 5784 5777 5774 5768 5763 5760 5758 5759 5758 5757 5756 5754 5752 5750 5749 5748 5747 5747 5746 5745 5744 5744 5743 5742 5741 5739 5739 5740 5740 5741 5741 5740 5740 5739 5738 5735 5733 5730 5728 5726 5725 5723
5788 5782 5775 5770 5765 5761 5758 5755 5754 5754 5754 5755 5753 5751 5749 5748 5747 5747 5746 5744 5744 5743 5742 5741 5739 5740 5739 5738 5740 5739 5740 5740 5740 5740 5739 5739 5737 5735 5733 5730 5727 5725 5724
5783 5777 5772 5767 5763 5758 5754 5750 5749 5747 5749 5750 5751 5749 5748 5747 5746 5746 5746 5743 5743 5741 5740 5739 5738 5736 5736 5738 5735 5733 5736 5739 5739 5739 5739 5739 5738 5737 5734 5732 5729 5728 5726
5777 5773 5768 5765 5761 5758 5754 5752 5750 5748 5747 5748 5749 5747 5746 5746 5745 5745 5744 5742 5742 5740 5739 5738 5737 5735 5736 5738 5733 5728 5724 5727 5734 5740 5739 5738 5738 5737 5736 5734 5732 5730 5728
5774 5770 5767 5763 5760 5756 5753 5749 5747 5744 5743 5743 5744 5744 5745 5744 5744 5744 5743 5742 5741 5739 5737 5736 5736 5733 5732 5735 5736 5730 5723 5720 5725 5733 5737 5738 5738 5737 5736 5736 5734 5732 5730
5773 5770 5766 5762 5758 5754 5751 5747 5744 5741 5738 5741 5742 5742 5743 5743 5743 5743 5742 5742 5740 5739 5737 5736 5736 5735 5733 5730 5733 5735 5733 5730 5724 5722 5730 5736 5737 5735 5736 5736 5735 5733 5731
5773 5768 5764 5760 5755 5752 5749 5746 5743 5741 5740 5741 5741 5741 5740 5741 5742 5741 5741 5741 5739 5738 5737 5736 5735 5735 5734 5732 5731 5732 5732 5732 5732 5725 5722 5727 5732 5735 5735 5735 5735 5733 5732
5771 5768 5762 5756 5752 5750 5747 5744 5742 5740 5738 5737 5737 5737 5738 5738 5739 5740 5740 5739 5738 5737 5736 5735 5734 5734 5733 5733 5733 5733 5732 5730 5729 5729 5726 5725 5727 5732 5736 5736 5735 5734 5733